Keene, NH

6:29 AM EDT on July 21, 2017 (GMT -0400)
Dillant-Hopkins

Weather History for KEEN - November, 2011

Change the Weather History Date:

Sunday, November 6, 2011

  Actual Average Record
Temperature  
Mean Temperature 37 °F -  
Max Temperature 55 °F 52 °F 76 °F (1994)
Min Temperature 19 °F 31 °F 16 °F (1951)
Degree Days  
Heating Degree Days 28    
Moisture  
Dew Point 22 °F    
Average Humidity 70    
Maximum Humidity 93    
Minimum Humidity 25    
Precipitation  
Precipitation 0.00 in - - ()
Sea Level Pressure  
Sea Level Pressure 30.42 in    
Wind  
Wind Speed 2 mph (SSW)    
Max Wind Speed 14 mph    
Max Gust Speed 18 mph    
Visibility 10 miles    
Events      
Averages and records for this station are not official NWS values.
T = Trace of Precipitation, MM = Missing Value Source: NWS Daily Summary

Daily Weather History Graph

Daily Weather History Graph

Search for Another Location

Airport or City:

Trip Planner

Search our weather history database for the weather conditions in past years. The results will help you decide how hot, cold, wet, or windy it might be!

Date:

Astronomy

Nov. 06, 2011 Rise Set
Actual Time 6:29 AM EST 4:35 PM EST
Civil Twilight 5:59 AM EST 5:05 PM EST
Nautical Twilight 5:25 AM EST 5:38 PM EST
Astronomical Twilight 4:52 AM EST 6:12 PM EST
Moon 2:22 PM EST (11/6) 2:28 AM EST (11/6)
Length of Visible Light 11h 05m
Length of Day
10h 06m
Waxing Gibbous, 85% of the Moon is Illuminated
Nov 6
Waxing Gibbous
Nov 10
Full
Nov 18
Last Quarter
Nov 25
New
Dec 2
First Quarter

Hourly Weather History & Observations

Time (EST) Temp. Windchill Dew Point Humidity Pressure Visibility Wind Dir Wind Speed Gust Speed Precip Events Conditions
12:15 AM 24.8 °F - 21.2 °F 86% 30.47 in 10.0 mi Calm Calm - N/A   Clear
12:35 AM 24.8 °F - 23.0 °F 93% 30.47 in 10.0 mi Calm Calm - N/A   Clear
12:55 AM 24.8 °F - 21.2 °F 86% 30.48 in 10.0 mi Calm Calm - N/A   Clear
1:15 AM 24.8 °F - 23.0 °F 93% 30.48 in 10.0 mi Calm Calm - N/A   Clear
1:35 AM 24.8 °F - 21.2 °F 86% 30.48 in 10.0 mi Calm Calm - N/A   Clear
1:55 AM 23.0 °F - 21.2 °F 93% 30.48 in 10.0 mi Calm Calm - N/A   Clear
1:35 AM 23.0 °F - 19.4 °F 86% 30.48 in 10.0 mi Calm Calm - N/A   Clear
1:55 AM 23.0 °F - 21.2 °F 93% 30.48 in 10.0 mi Calm Calm - N/A   Clear
2:35 AM 23.0 °F - 21.2 °F 93% 30.47 in 10.0 mi Calm Calm - N/A   Clear
2:55 AM 21.2 °F - 19.4 °F 93% 30.47 in 10.0 mi Calm Calm - N/A   Clear
3:15 AM 21.2 °F - 19.4 °F 93% 30.47 in 10.0 mi Calm Calm - N/A   Clear
3:35 AM 21.2 °F - 19.4 °F 93% 30.47 in 10.0 mi Calm Calm - N/A   Clear
3:55 AM 21.2 °F 16.4 °F 19.4 °F 93% 30.47 in 10.0 mi South 3.5 mph - N/A   Clear
4:15 AM 21.2 °F - 19.4 °F 93% 30.47 in 10.0 mi Calm Calm - N/A   Clear
4:35 AM 21.2 °F - 19.4 °F 93% 30.47 in 10.0 mi Calm Calm - N/A   Clear
5:15 AM 21.2 °F - 17.6 °F 86% 30.48 in 10.0 mi Calm Calm - N/A   Clear
5:35 AM 19.4 °F - 17.6 °F 93% 30.48 in 10.0 mi Calm Calm - N/A   Clear
5:55 AM 19.4 °F - 17.6 °F 93% 30.48 in 10.0 mi Calm Calm - N/A   Clear
6:35 AM 19.4 °F - 17.6 °F 93% 30.48 in 10.0 mi Calm Calm - N/A   Clear
6:55 AM 19.4 °F - 17.6 °F 93% 30.49 in 10.0 mi Calm Calm - N/A   Clear
7:15 AM 19.4 °F - 17.6 °F 93% 30.49 in 10.0 mi Calm Calm - N/A   Clear
7:35 AM 21.2 °F - 17.6 °F 86% 30.50 in 10.0 mi Calm Calm - N/A   Clear
7:55 AM 21.2 °F - 19.4 °F 93% 30.50 in 10.0 mi Calm Calm - N/A   Clear
8:15 AM 24.8 °F - 21.2 °F 86% 30.50 in 10.0 mi Calm Calm - N/A   Clear
8:55 AM 28.4 °F - 23.0 °F 80% 30.50 in 10.0 mi Calm Calm - N/A   Clear
9:15 AM 30.2 °F - 26.6 °F 86% 30.49 in 10.0 mi Calm Calm - N/A   Clear
9:35 AM 32.0 °F - 24.8 °F 75% 30.49 in 10.0 mi Calm Calm - N/A   Clear
10:15 AM 37.4 °F - 26.6 °F 65% 30.48 in 10.0 mi Calm Calm - N/A   Clear
10:35 AM 39.2 °F - 26.6 °F 61% 30.47 in 10.0 mi Calm Calm - N/A   Clear
10:55 AM 41.0 °F - 26.6 °F 57% 30.45 in 10.0 mi Calm Calm - N/A   Clear
11:15 AM 44.6 °F - 24.8 °F 46% 30.44 in 10.0 mi Calm Calm - N/A   Clear
11:35 AM 48.2 °F - 24.8 °F 40% 30.42 in 10.0 mi SSW 4.6 mph - N/A   Clear
11:55 AM 50.0 °F - 21.2 °F 32% 30.40 in 10.0 mi SSW 8.1 mph - N/A   Clear
12:15 PM 50.0 °F - 21.2 °F 32% 30.39 in 10.0 mi SSW 8.1 mph - N/A   Clear
12:35 PM 51.8 °F - 21.2 °F 30% 30.38 in 10.0 mi SSW 9.2 mph - N/A   Clear
1:15 PM 53.6 °F - 19.4 °F 26% 30.37 in 10.0 mi SSW 10.4 mph 17.3 mph N/A   Clear
1:35 PM 53.6 °F - 19.4 °F 26% 30.37 in 10.0 mi SSW 11.5 mph - N/A   Clear
1:55 PM 53.6 °F - 19.4 °F 26% 30.36 in 10.0 mi SSW 12.7 mph 18.4 mph N/A   Clear
2:35 PM 55.4 °F - 19.4 °F 25% 30.35 in 10.0 mi SW 13.8 mph 17.3 mph N/A   Clear
2:55 PM 55.4 °F - 19.4 °F 25% 30.35 in 10.0 mi SW 9.2 mph - N/A   Clear
3:15 PM 55.4 °F - 19.4 °F 25% 30.34 in 10.0 mi SSW 12.7 mph - N/A   Clear
3:35 PM 53.6 °F - 21.2 °F 28% 30.34 in 10.0 mi SSW 9.2 mph - N/A   Clear
3:55 PM 53.6 °F - 21.2 °F 28% 30.33 in 10.0 mi SSW 5.8 mph - N/A   Clear
4:15 PM 51.8 °F - 24.8 °F 35% 30.33 in 10.0 mi South 4.6 mph - N/A   Clear
4:35 PM 44.6 °F - 26.6 °F 49% 30.32 in 10.0 mi Calm Calm - N/A   Clear
5:15 PM 42.8 °F - 24.8 °F 49% 30.33 in 10.0 mi Calm Calm - N/A   Clear
5:35 PM 39.2 °F - 24.8 °F 56% 30.34 in 10.0 mi Calm Calm - N/A   Clear
5:55 PM 37.4 °F - 26.6 °F 65% 30.35 in 10.0 mi Calm Calm - N/A   Clear
6:15 PM 35.6 °F 32.8 °F 26.6 °F 70% 30.35 in 10.0 mi SSW 3.5 mph - N/A   Clear
6:35 PM 33.8 °F 29.6 °F 26.6 °F 75% 30.35 in 10.0 mi SSW 4.6 mph - N/A   Clear
6:55 PM 33.8 °F - 24.8 °F 70% 30.35 in 10.0 mi Calm Calm - N/A   Clear
7:35 PM 33.8 °F - 26.6 °F 75% 30.34 in 10.0 mi Calm Calm - N/A   Clear
7:55 PM 33.8 °F 30.8 °F 26.6 °F 75% 30.34 in 10.0 mi SSE 3.5 mph - N/A   Clear
8:15 PM 30.2 °F 26.7 °F 26.6 °F 86% 30.33 in 10.0 mi SSE 3.5 mph - N/A   Clear
8:35 PM 30.2 °F - 26.6 °F 86% 30.34 in 10.0 mi Calm Calm - N/A   Clear
8:55 PM 30.2 °F - 26.6 °F 86% 30.34 in 10.0 mi Calm Calm - N/A   Clear
9:15 PM 28.4 °F - 24.8 °F 86% 30.34 in 10.0 mi Calm Calm - N/A   Clear
9:35 PM 28.4 °F - 26.6 °F 93% 30.33 in 10.0 mi Calm Calm - N/A   Clear
10:15 PM 26.6 °F - 24.8 °F 93% 30.32 in 10.0 mi Calm Calm - N/A   Clear
10:35 PM 28.4 °F - 26.6 °F 93% 30.33 in 10.0 mi Calm Calm - N/A   Clear
10:55 PM 28.4 °F - 24.8 °F 86% 30.33 in 10.0 mi Calm Calm - N/A   Clear